Location: LewisvilleTX
(33.0462°N, 96.9942°W)
Time: 05:20:55
(UTC+00:00)

N. Korean satellite - Pass Details

Date: 04 December 2021
Orbit: 447 x 491 km, 97.3° (Epoch: 22 January)

Event Time Altitude Azimuth Distance (km) Brightness Sun altitude
Rises 11:08:16 0° 23° (NNE) 2,452 10.3 -26.1°
Reaches altitude 10° 11:10:28 10° 35° (NE) 1,574 9.4 -25.7°
Maximum altitude 11:13:28 30° 98° (E) 833 8.3 -25.0°
Drops below altitude 10° 11:16:27 10° 161° (SSE) 1,567 9.5 -24.4°
Sets 11:18:38 0° 172° (S) 2,437 10.4 -24.0°
